EW3811 Weather Reports


time (UTC)temp
C
wind
direction
speed
KPH
gust
KPH
rain 1hr
cm
rain 24hr
cm
rain mn
cm
humidity
%
barometer
mb
20260507171526 10 74 3.2 16.1 0.00 0.05 0.03 53 1007.1
20260507170025 9 184 0.0 16.1 0.00 0.05 0.03 57 1007.2
20260507164523 8 305 9.7 30.6 0.00 0.05 0.03 60 1007.5
20260507163020 7 275 1.6 9.7 0.00 0.05 0.03 60 1008.0
20260507161521 7 186 0.0 8.0 0.00 0.05 0.03 65 1008.1
20260507160021 7 113 0.0 12.9 0.00 0.05 0.03 71 1008.2
20260507154529 8 99 3.2 12.9 0.00 0.05 0.03 67 1008.0
20260507153029 8 105 0.0 4.8 0.00 0.05 0.03 70 1007.8
20260507151513 8 352 1.6 11.3 0.00 0.05 0.03 69 1008.1
20260507150016 8 50 1.6 11.3 0.00 0.05 0.03 66 1008.1
20260507144513 8 67 4.8 11.3 0.00 0.05 0.03 64 1007.9
20260507143021 9 93 1.6 16.1 0.00 0.05 0.03 61 1007.7
20260507141510 10 129 0.0 9.7 0.00 0.05 0.03 57 1007.7
20260507140011 10 267 3.2 16.1 0.00 0.05 0.03 58 1007.6
20260507134508 9 32 6.4 17.7 0.00 0.05 0.03 59 1007.6
20260507133006 9 64 1.6 9.7 0.00 0.05 0.03 60 1007.6
20260507131510 9 112 6.4 22.5 0.00 0.05 0.03 58 1008.0
20260507130012 10 242 0.0 9.7 0.00 0.05 0.03 60 1007.8
20260507124503 9 24 0.0 8.0 0.00 0.05 0.03 63 1007.7
20260507123100 9 73 0.0 4.8 0.00 0.05 0.03 64 1007.8
20260507121557 8 314 0.0 0.0 0.00 0.05 0.03 71 1008.1
20260507120055 7 164 0.0 8.0 0.00 0.05 0.03 78 1008.2
20260507114558 7 212 0.0 1.6 0.00 0.05 0.03 80 1007.8
20260507113053 7 108 0.0 0.0 0.00 0.05 0.03 78 1007.8
20260507111551 6 96 0.0 1.6 0.00 0.05 0.03 82 1008.1
20260507110049 5 259 0.0 0.0 0.00 0.05 0.03 87 1008.2
20260507104549 4 33 0.0 0.0 0.00 0.05 0.03 92 1008.0
20260507103048 3 359 0.0 0.0 0.00 0.05 0.03 93 1008.0
20260507101552 3 337 0.0 0.0 0.00 0.05 0.03 93 1008.0
20260507100047 2 335 0.0 1.6 0.00 0.05 0.03 95 1007.7
20260507094543 2 25 0.0 0.0 0.00 0.05 0.03 95 1007.6
20260507093046 3 303 0.0 0.0 0.00 0.05 0.03 95 1007.7
20260507091539 3 35 0.0 0.0 0.00 0.05 0.03 94 1007.7
20260507090037 3 26 0.0 0.0 0.00 0.05 0.03 93 1007.6
20260507084536 3 27 0.0 0.0 0.00 0.05 0.03 93 1007.6
20260507083034 3 225 0.0 6.4 0.00 0.05 0.03 92 1007.8
20260507081532 4 162 0.0 0.0 0.00 0.05 0.03 86 1007.2
20260507080037 4 308 0.0 0.0 0.00 0.05 0.03 92 1006.8
20260507074528 4 308 0.0 1.6 0.00 0.05 0.03 89 1006.7
20260507073025 4 337 0.0 1.6 0.00 0.05 0.03 90 1006.8
20260507071555 5 344 0.0 0.0 0.00 0.05 0.03 91 1006.9
20260507070022 4 319 0.0 0.0 0.03 0.05 0.03 91 1006.7
20260507064522 4 296 0.0 0.0 0.03 0.05 0.03 90 1006.8
20260507063018 4 268 0.0 1.6 0.03 0.05 0.03 89 1006.6
20260507061517 5 271 0.0 1.6 0.03 0.05 0.03 89 1006.5
20260507060013 5 110 0.0 3.2 0.00 0.03 0.00 90 1006.3
20260507054509 6 300 0.0 6.4 0.00 0.03 0.00 95 1005.9
20260507053012 6 110 0.0 1.6 0.00 0.03 0.00 95 1006.0
20260507051506 6 68 0.0 0.0 0.00 0.03 0.00 94 1005.7
20260507050006 6 75 0.0 0.0 0.00 0.03 0.00 95 1005.6
20260507044503 7 26 0.0 0.0 0.00 0.03 0.00 94 1005.3
20260507043100 7 272 0.0 0.0 0.00 0.03 0.00 94 1005.7
20260507041558 7 191 0.0 6.4 0.00 0.03 0.00 93 1006.1
20260507040054 7 266 0.0 3.2 0.00 0.03 0.03 96 1005.8
20260507034554 7 302 1.6 8.0 0.00 0.03 0.03 97 1005.8
20260507033052 7 301 0.0 1.6 0.00 0.03 0.03 97 1005.8
20260507031553 8 104 0.0 1.6 0.00 0.03 0.03 97 1005.6
20260507030047 8 121 0.0 0.0 0.00 0.03 0.03 97 1005.3
20260507024546 8 143 0.0 0.0 0.00 0.03 0.03 97 1005.6
20260507023044 8 138 0.0 0.0 0.03 0.03 0.03 97 1005.5
20260507021545 9 289 0.0 0.0 0.03 0.03 0.03 97 1005.4
20260507020042 9 287 0.0 0.0 0.03 0.03 0.03 97 1005.3
20260507014549 9 287 0.0 0.0 0.03 0.03 0.03 97 1005.5
20260507013036 10 235 0.0 0.0 0.00 0.00 0.00 97 1005.5
20260507011538 10 212 0.0 0.0 0.00 0.00 0.00 97 1005.5
20260507010036 10 114 0.0 0.0 0.00 0.03 0.00 97 1005.3
20260507004537 10 359 0.0 1.6 0.00 0.03 0.00 97 1005.2
20260507003028 11 290 0.0 1.6 0.00 0.03 0.00 97 1005.1
20260507001528 11 185 0.0 0.0 0.00 0.03 0.00 97 1004.9
20260507000028 12 239 0.0 3.2 0.00 0.03 0.00 97 1004.7
20260506234527 12 159 0.0 0.0 0.00 0.03 0.00 97 1004.7
20260506233027 12 160 0.0 0.0 0.00 0.03 0.00 97 1004.5
20260506231526 12 160 0.0 0.0 0.00 0.03 0.00 97 1004.6
20260506230025 12 285 0.0 3.2 0.00 0.03 0.00 97 1004.6
20260506224524 12 214 0.0 11.3 0.00 0.03 0.00 97 1004.3
20260506223022 12 243 1.6 8.0 0.00 0.03 0.00 97 1004.4
20260506221520 12 219 0.0 8.0 0.00 0.03 0.00 97 1004.5
20260506220031 12 202 0.0 9.7 0.00 0.08 0.00 97 1004.7
20260506214516 12 207 0.0 6.4 0.00 0.08 0.00 97 1005.0
20260506213014 12 280 1.6 8.0 0.00 0.08 0.00 97 1005.1
20260506211513 12 207 0.0 11.3 0.00 0.08 0.00 97 1005.1
20260506210015 12 240 1.6 6.4 0.00 0.08 0.00 97 1005.3
20260506204511 12 268 0.0 4.8 0.00 0.08 0.00 97 1005.4
20260506203019 12 284 0.0 8.0 0.00 0.08 0.00 97 1005.4
20260506201509 12 229 0.0 11.3 0.00 0.08 0.00 97 1005.4
20260506200008 12 252 1.6 9.7 0.00 0.08 0.00 97 1005.5
20260506194505 12 284 0.0 4.8 0.00 0.08 0.00 97 1005.8
20260506193004 12 239 0.0 8.0 0.00 0.08 0.00 97 1005.9
20260506191503 12 267 0.0 6.4 0.00 0.08 0.00 97 1005.9
20260506190004 12 270 1.6 12.9 0.00 0.08 0.00 96 1005.9
20260506184502 12 238 0.0 1.6 0.00 0.08 0.00 96 1005.9
20260506183118 12 216 0.0 1.6 0.00 0.08 0.00 96 1006.2
20260506181602 12 236 0.0 0.0 0.00 0.08 0.00 96 1006.4
20260506180114 12 115 0.0 0.0 0.00 0.10 0.00 96 1007.0
20260506174555 12 273 0.0 1.6 0.00 0.10 0.00 95 1007.1
20260506173124 12 287 0.0 0.0 0.00 0.10 0.00 94 1006.9